Whidbey Island, WA
on Wednesday, December 26, 2012

Wednesday
Previous Day Next Day
Daily Summary
 ActualAverageRecord
Temperature
Mean Temperature °F °F  
Max Temperature 44°F 43°F 48°F (2013)
Min Temperature 41°F 33°F 24°F (1996)
Degree Days
Heating Degree Days 22    
Moisture
Dew Point 37°F   
Average Humidity 80    
Maximum Humidity 89    
Minimum Humidity 73    
Precipitation
Precipitation 0.05 in in in ()
Wind
Wind Speed 13 mph   
Max Wind Speed 20 mph   
Max Gust Speed 28 mph   
Visibility 9 miles   
Events Rain   
Averages and records for this station are not official NWS values.
Key: T is trace of precipitation, MM is missing value
Source: NWS Daily Summary
Seasonal Weather Averages
Time(PST)TemperatureDew PointHumidity Pressure Visibility Wind DirectionWind SpeedGust SpeedPrecipitationEvents Conditions
12:56 AM 41.0°F 33.1°F 73% 29.70 in 10.0 miles SSE 13.8 mph - N/A   Mostly Cloudy
1:56 AM 42.1°F 34.0°F 73% 29.71 in 10.0 miles East 9.2 mph - N/A   Mostly Cloudy
2:56 AM 41.0°F 34.0°F 76% 29.71 in 10.0 miles ESE 9.2 mph - N/A   Mostly Cloudy
3:56 AM 42.1°F 35.1°F 76% 29.71 in 10.0 miles East 11.5 mph - N/A   Overcast
4:56 AM 42.1°F 35.1°F 76% 29.71 in 10.0 miles East 11.5 mph - N/A   Overcast
5:56 AM 41.0°F 35.6°F 81% 29.72 in 10.0 miles ESE 10.4 mph - N/A   Overcast
6:56 AM 41.0°F 34.0°F 76% 29.73 in 8.0 miles East 13.8 mph 24.2 mph N/A   Overcast
7:56 AM 41.0°F 35.1°F 79% 29.74 in 10.0 miles East 12.7 mph - N/A   Overcast
8:56 AM 41.0°F 35.1°F 79% 29.75 in 10.0 miles East 12.7 mph - N/A   Overcast
9:56 AM 42.1°F 35.1°F 76% 29.77 in 10.0 miles ESE 13.8 mph - N/A   Overcast
10:56 AM 43.0°F 36.0°F 76% 29.76 in 10.0 miles ESE 13.8 mph - N/A   Overcast
11:56 AM 44.1°F 37.0°F 76% 29.76 in 10.0 miles SE 17.3 mph 26.5 mph N/A   Overcast
12:56 PM 44.1°F 37.9°F 79% 29.75 in 10.0 miles SE 19.6 mph 27.6 mph N/A   Overcast
1:56 PM 44.1°F 37.9°F 79% 29.76 in 10.0 miles SE 16.1 mph 25.3 mph N/A   Overcast
2:56 PM 44.1°F 37.9°F 79% 29.76 in 10.0 miles SE 16.1 mph 24.2 mph N/A   Overcast
3:56 PM 44.1°F 37.9°F 79% 29.76 in 10.0 miles ESE 16.1 mph - N/A   Overcast
4:43 PM 44.6°F 37.4°F 76% 29.76 in 10.0 miles SE 16.1 mph 27.6 mph 0.00 in Rain Light Rain
4:56 PM 44.1°F 37.9°F 79% 29.78 in 8.0 miles SE 19.6 mph 26.5 mph 0.00 in Rain Light Rain
5:56 PM 43.0°F 39.0°F 86% 29.79 in 10.0 miles ESE 13.8 mph - 0.00 in Rain Light Rain
6:56 PM 43.0°F 39.0°F 86% 29.81 in 10.0 miles ESE 10.4 mph - 0.01 in Rain Light Rain
7:29 PM 42.8°F 39.2°F 87% 29.81 in 6.0 miles East 8.1 mph - 0.00 in Rain Light Rain
7:56 PM 42.1°F 39.0°F 89% 29.83 in 8.0 miles ESE 10.4 mph - 0.00 in Rain Light Rain
8:56 PM 42.1°F 39.0°F 89% 29.85 in 10.0 miles East 9.2 mph - 0.01 in Rain Light Rain
9:56 PM 42.1°F 39.0°F 89% 29.87 in 9.0 miles East 8.1 mph - 0.02 in Rain Light Rain
10:56 PM 42.1°F 39.0°F 89% 29.89 in 7.0 miles East 9.2 mph - 0.01 in Rain Light Rain
11:56 PM 42.1°F 39.0°F 89% 29.91 in 7.0 miles ENE 6.9 mph - 0.00 in Rain Light Rain
Moon Phase
Dec. 26 Dec. 28 Jan. 04 Jan. 11 Jan. 18
Sunrise:08:01 AM (PST) Moon Rise:03:21 PM (PST)
Sunset:04:21 PM (PST) Moon Set:06:27 AM (PST)

Copyright © 2014 The Weather Underground, Inc.